Preview of NWS' New Version of Forecast
This preview is not operational and should not be used for support decisions.

Regional Weather Roundup (RWR)

Issued by National Weather Service (NWS)

                            
000
ASUS43 KLSX 220757
RWRMO 

WEATHER SUMMARY FOR MISSOURI
NATIONAL WEATHER SERVICE SPRINGFIELD MO
300 AM CDT MON JUL 22 2019

NOTE: "FAIR" INDICATES FEW OR NO CLOUDS BELOW 12,000 FEET WITH NO
       SIGNIFICANT WEATHER AND/OR OBSTRUCTIONS TO VISIBILITY.
       CURRENT SKY AND/OR WEATHER CONDITIONS ARE NOT AVAILABLE FOR
       CHILLICOTHE AND FARMINGTON.

MOZ001>031-035>038-043-044-053-054-220900-
...NORTHERN AND WESTERN MISSOURI...
  
CITY           SKY/WX    TMP DP  RH WIND       PRES   REMARKS
KANSAS CTY INT CLEAR     69  67  93 N12       30.05S                  
LEE'S SUMMIT   CLOUDY    72  68  87 N13       30.04R                  
ST JOSEPH      CLEAR     68  65  90 N7        30.08R                  
CHILLICOTHE      N/A     70  68  93 CALM      30.05S                  
     
$$
MOZ066>068-077>081-088>096-101>105-220900-
...SOUTHWEST MISSOURI...
  
CITY           SKY/WX    TMP DP  RH WIND       PRES   REMARKS
SPRINGFIELD    LGT RAIN  72  70  93 N5        29.99R                  
JOPLIN         PTCLDY    70  70 100 W6        29.99F                  
               
$$
MOZ032>034-039>042-045>050-055>058-069>072-220900-
...CENTRAL MISSOURI...  
  
CITY           SKY/WX    TMP DP  RH WIND       PRES   REMARKS
COLUMBIA       NOT AVBL                                               
ROLLA          LGT RAIN  74  72  93 W3        29.97S                  
SEDALIA        RAIN      69  32  25 NE12      30.00S                  
WARRENSBURG    CLOUDY    70  70 100 N3        30.00S                  
OSAGE BEACH    HVY RAIN  73  73 100 NE6       29.98S                  
               
$$
MOZ051-052-059>065-220900-
...EAST CENTRAL MISSOURI...
  
CITY           SKY/WX    TMP DP  RH WIND       PRES   REMARKS
ST LOUIS INTL  LGT RAIN  77  72  84 NE12      29.92S                  
SPIRIT OF STL  CLOUDY    77  73  88 SE8       29.91S THUNDER          
                   
$$
MOZ072>076-082>087-097>100-106>115-220900-
...SOUTH CENTRAL AND SOUTHEAST MISSOURI...
  
CITY           SKY/WX    TMP DP  RH WIND       PRES   REMARKS
CAPE GIRARDEAU LGT RAIN  74  71  91 W6        29.90F                  
POPLAR BLUFF   CLOUDY    77  73  87 NE8       29.91R                  
WEST PLAINS    CLOUDY    75  69  81 NE10      29.97R                  
                                       
$$